Meriden, CT

12:52 AM EDT on October 24, 2019 (GMT -0400)
Meriden Markham Municipal

Weather History for KMMK - September, 2019

Change the Weather History Date:

Tuesday, September 17, 2019

  Actual Average (WUND) Record (WUND)
Temperature  
Mean Temperature 60 °F -  
Max Temperature 73 °F - - (-1)
Min Temperature 46 °F - - (-1)
Degree Days  
Heating Degree Days 6    
Growing Degree Days 10 (Base 50)    
Moisture  
Dew Point 47 °F    
Average Humidity 68    
Maximum Humidity 93    
Minimum Humidity 37    
Precipitation  
Precipitation 0.00 in - - ()
Sea Level Pressure  
Sea Level Pressure 30.13 in    
Wind  
Wind Speed 3 mph (NNE)    
Max Wind Speed 13 mph    
Max Gust Speed 17 mph    
Visibility 10 miles    
Events      
Averages and records for this station are not official NWS values.
T = Trace of Precipitation, MM = Missing Value Source: NWS Daily Summary

Daily Weather History Graph

Daily Weather History Graph

Search for Another Location

Airport or City:

Astronomy

Sep. 17, 2019 Rise Set
Actual Time 6:33 AM EDT 6:57 PM EDT
Civil Twilight 6:05 AM EDT 7:25 PM EDT
Nautical Twilight 5:32 AM EDT 7:57 PM EDT
Astronomical Twilight 4:59 AM EDT 8:31 PM EDT
Moon 8:57 PM EDT (9/17) 9:37 AM EDT (9/17)
Length of Visible Light 13h 19m
Length of Day
12h 24m
Waning Gibbous, 89% of the Moon is Illuminated
Sep 17
Waning Gibbous
Sep 21
Last Quarter
Sep 28
New
Oct 5
First Quarter
Oct 13
Full

Hourly Weather History & Observations

Time (EDT) Temp. Dew Point Humidity Pressure Visibility Wind Dir Wind Speed Gust Speed Precip Events Conditions
12:53 AM 53.1 °F 50.0 °F 89% 30.09 in 10.0 mi Calm Calm - N/A   Clear
1:53 AM 52.0 °F 48.9 °F 89% 30.10 in 10.0 mi Calm Calm - N/A   Clear
2:53 AM 48.9 °F 46.9 °F 93% 30.10 in 10.0 mi Calm Calm - N/A   Clear
3:53 AM 50.0 °F 48.0 °F 93% 30.09 in 10.0 mi NNW 3.5 mph - N/A   Clear
4:53 AM 50.0 °F 48.0 °F 93% 30.10 in 10.0 mi Calm Calm - N/A   Clear
5:53 AM 48.0 °F 46.0 °F 93% 30.12 in 10.0 mi Calm Calm - N/A   Clear
6:53 AM 46.9 °F 45.0 °F 93% 30.14 in 10.0 mi Calm Calm - N/A   Clear
7:53 AM 53.1 °F 48.9 °F 86% 30.15 in 10.0 mi Calm Calm - N/A   Clear
8:53 AM 60.1 °F 48.9 °F 67% 30.15 in 10.0 mi Calm Calm - N/A   Clear
9:53 AM 66.0 °F 48.0 °F 52% 30.15 in 10.0 mi NNE 5.8 mph - N/A   Clear
10:53 AM 68.0 °F 46.0 °F 45% 30.15 in 10.0 mi North 11.5 mph - N/A   Clear
11:53 AM 70.0 °F 45.0 °F 41% 30.14 in 10.0 mi NNE 11.5 mph - N/A   Clear
12:53 PM 71.1 °F 45.0 °F 39% 30.13 in 10.0 mi NE 8.1 mph - N/A   Clear
1:53 PM 73.0 °F 45.0 °F 37% 30.11 in 10.0 mi NNE 8.1 mph 17.3 mph N/A   Clear
2:53 PM 72.0 °F 46.0 °F 40% 30.10 in 10.0 mi ENE 12.7 mph - N/A   Clear
3:53 PM 73.0 °F 45.0 °F 37% 30.10 in 10.0 mi North 8.1 mph - N/A   Clear
4:53 PM 72.0 °F 45.0 °F 38% 30.10 in 10.0 mi North 10.4 mph - N/A   Clear
5:53 PM 71.1 °F 44.1 °F 38% 30.11 in 10.0 mi ENE 6.9 mph - N/A   Clear
6:53 PM 64.9 °F 46.0 °F 50% 30.12 in 10.0 mi Calm Calm - N/A   Clear
7:53 PM 60.1 °F 51.1 °F 72% 30.14 in 10.0 mi Calm Calm - N/A   Mostly Cloudy
8:53 PM 54.0 °F 50.0 °F 86% 30.15 in 10.0 mi Calm Calm - N/A   Clear
9:53 PM 52.0 °F 48.9 °F 89% 30.17 in 10.0 mi Calm Calm - N/A   Clear
10:53 PM 52.0 °F 48.9 °F 89% 30.18 in 10.0 mi Calm Calm - N/A   Clear
11:53 PM 52.0 °F 50.0 °F 93% 30.18 in 10.0 mi Calm Calm - N/A   Clear